Weather History for VDSR - February, 2014

Change the Weather History Date:

Saturday, February 1, 2014

  Actual Average Record
Temperature  
Mean Temperature 75 °F -  
Max Temperature 86 °F - - ()
Min Temperature 64 °F - - ()
Cooling Degree Days 10    
Growing Degree Days 25 (Base 50)    
Moisture  
Dew Point 64 °F    
Average Humidity 65    
Maximum Humidity 94    
Minimum Humidity 40    
Precipitation  
Precipitation 0.00 in - - ()
Sea Level Pressure  
Sea Level Pressure 29.85 in    
Wind  
Wind Speed 4 mph ()    
Max Wind Speed 9 mph    
Max Gust Speed -    
Visibility 5.5 miles    
Events      
T = Trace of Precipitation, MM = Missing Value Source: Averaged Metar Reports

Daily Weather History Graph

Daily Weather History Graph

Search for Another Location

Airport or City:

Trip Planner

Search our weather history database for the weather conditions in past years. The results will help you decide how hot, cold, wet, or windy it might be!

Date:

Astronomy

Feb. 01, 2014 Rise Set
Actual Time 6:31 AM ICT 6:05 PM ICT
Civil Twilight 6:09 AM ICT 6:27 PM ICT
Nautical Twilight 5:43 AM ICT 6:52 PM ICT
Astronomical Twilight 5:18 AM ICT 7:18 PM ICT
Moon 7:22 AM ICT (2/1) 7:34 PM ICT (2/1)
Length of Visible Light 12h 18m
Length of Day
11h 33m
Waxing Crescent, 3% of the Moon is Illuminated
Feb 1
Waxing Crescent
Feb 7
First Quarter
Feb 15
Full
Feb 23
Last Quarter
Mar 1
New

Hourly Weather History & Observations

Time (ICT) Temp. Heat Index Dew Point Humidity Pressure Visibility Wind Dir Wind Speed Gust Speed Precip Events Conditions
12:00 AM 71.6 °F - 62.6 °F 73% 29.89 in 5.0 mi NE 3.5 mph - N/A   Unknown
12:30 AM 71.6 °F - 64.4 °F 78% 29.89 in 5.0 mi NE 3.5 mph - N/A   Unknown
1:00 AM 69.8 °F - 62.6 °F 78% 29.89 in 5.0 mi NNE 4.6 mph - N/A   Unknown
7:00 AM 64.4 °F - 62.6 °F 94% 29.89 in 5.6 mi SW 1.2 mph - N/A   Scattered Clouds
7:30 AM 66.2 °F - 64.4 °F 94% 29.89 in 5.6 mi WSW 1.2 mph - N/A   Scattered Clouds
8:00 AM 69.8 °F - 64.4 °F 83% 29.89 in 6.2 mi WSW 3.5 mph - N/A   Scattered Clouds
8:30 AM 69.8 °F - 64.4 °F 83% 29.92 in - ESE 3.5 mph - N/A   Clear
9:00 AM 75.2 °F - 64.4 °F 69% 29.92 in - ESE 3.5 mph - N/A   Clear
9:30 AM 75.2 °F - 64.4 °F 69% 29.92 in - ESE 2.3 mph - N/A   Clear
10:00 AM 77.0 °F - 62.6 °F 61% 29.92 in - South 2.3 mph - N/A   Clear
10:30 AM 78.8 °F - 62.6 °F 57% 29.92 in - South 4.6 mph - N/A   Clear
11:00 AM 80.6 °F 81.8 °F 62.6 °F 54% 29.89 in - SSW 9.2 mph - N/A   Clear
11:30 AM 82.4 °F 83.9 °F 64.4 °F 54% 29.89 in - SSW 8.1 mph - N/A   Clear
12:00 PM 82.4 °F 83.4 °F 62.6 °F 51% 29.89 in - South 3.5 mph - N/A   Clear
12:30 PM 82.4 °F 83.9 °F 64.4 °F 54% 29.86 in - South 8.1 mph - N/A   Clear
1:00 PM 84.2 °F 85.0 °F 62.6 °F 48% 29.86 in - South 8.1 mph - N/A   Clear
1:30 PM 84.2 °F 85.0 °F 62.6 °F 48% 29.83 in - South 8.1 mph - N/A   Clear
2:00 PM 86.0 °F 86.6 °F 62.6 °F 45% 29.83 in - SW 8.1 mph - N/A   Clear
2:30 PM 86.0 °F 86.6 °F 62.6 °F 45% 29.80 in - SSW 8.1 mph - N/A   Clear
3:00 PM 86.0 °F 85.4 °F 59.0 °F 40% 29.80 in - WSW 4.6 mph - N/A   Clear
3:30 PM 86.0 °F 85.4 °F 59.0 °F 40% 29.80 in - South 8.1 mph - N/A   Clear
4:00 PM 86.0 °F 85.4 °F 59.0 °F 40% 29.77 in - South 8.1 mph - N/A   Clear
4:30 PM 84.2 °F 84.4 °F 60.8 °F 45% 29.77 in 5.6 mi SSE 6.9 mph - N/A   Unknown
5:00 PM 84.2 °F 84.4 °F 60.8 °F 45% 29.77 in 5.6 mi SSE 6.9 mph - N/A   Unknown
5:30 PM 82.4 °F 82.9 °F 60.8 °F 48% 29.80 in 5.6 mi South 6.9 mph - N/A   Unknown
6:00 PM 78.8 °F - 62.6 °F 57% 29.80 in 5.6 mi SSW 6.9 mph - N/A   Unknown
6:30 PM 77.0 °F - 64.4 °F 65% 29.80 in 5.6 mi SSE 4.6 mph - N/A   Unknown
7:00 PM 75.2 °F - 64.4 °F 69% 29.80 in 5.6 mi Calm Calm - N/A   Unknown
7:30 PM 75.2 °F - 68.0 °F 78% 29.80 in 5.6 mi Calm Calm - N/A   Unknown
8:00 PM 75.2 °F - 68.0 °F 78% 29.83 in 5.6 mi Calm Calm - N/A   Unknown
8:30 PM 73.4 °F - 66.2 °F 78% 29.83 in 5.6 mi East 4.6 mph - N/A   Unknown
9:00 PM 73.4 °F - 68.0 °F 83% 29.86 in 5.6 mi East 3.5 mph - N/A   Unknown
9:30 PM 71.6 °F - 66.2 °F 83% 29.86 in 5.6 mi East 3.5 mph - N/A   Unknown
10:00 PM 71.6 °F - 66.2 °F 83% 29.86 in 5.6 mi NE 3.5 mph - N/A   Unknown
10:30 PM 71.6 °F - 66.2 °F 83% 29.83 in 5.0 mi Variable 2.3 mph - N/A   Unknown
11:00 PM 71.6 °F - 66.2 °F 83% 29.83 in 5.0 mi NNE 2.3 mph - N/A   Unknown
11:30 PM 71.6 °F - 66.2 °F 83% 29.83 in 5.0 mi North 3.5 mph - N/A   Unknown